| time (UTC) | temp C | wind direction | speed KPH | gust KPH | rain 1hr cm | rain 24hr cm | rain mn cm | humidity % | barometer mb |
| 20260508214052 | 21 | 269 | 14.5 | 20.9 | 0.00 | 0.00 | 0.00 | 36 | 1010.9 |
| 20260508213552 | 21 | 290 | 9.7 | 20.9 | 0.00 | 0.00 | 0.00 | 36 | 1011.1 |
| 20260508213053 | 21 | 281 | 9.7 | 20.9 | 0.00 | 0.00 | 0.00 | 36 | 1011.2 |
| 20260508212552 | 21 | 248 | 9.7 | 20.9 | 0.00 | 0.00 | 0.00 | 38 | 1011.2 |
| 20260508212052 | 21 | 273 | 6.4 | 20.9 | 0.00 | 0.00 | 0.00 | 38 | 1011.1 |
| 20260508211554 | 21 | 257 | 9.7 | 22.5 | 0.00 | 0.00 | 0.00 | 36 | 1011.3 |
| 20260508211052 | 21 | 268 | 11.3 | 22.5 | 0.00 | 0.00 | 0.00 | 36 | 1011.3 |
| 20260508210552 | 21 | 67 | 8.0 | 30.6 | 0.00 | 0.00 | 0.00 | 36 | 1011.3 |
| 20260508210108 | 21 | 261 | 11.3 | 30.6 | 0.00 | 0.00 | 0.00 | 36 | 1011.3 |
| 20260508205552 | 21 | 247 | 11.3 | 22.5 | 0.00 | 0.00 | 0.00 | 35 | 1011.6 |
| 20260508205052 | 21 | 294 | 11.3 | 29.0 | 0.00 | 0.00 | 0.00 | 36 | 1011.7 |
| 20260508204601 | 21 | 309 | 14.5 | 29.0 | 0.00 | 0.00 | 0.00 | 36 | 1011.7 |
| 20260508204052 | 21 | 268 | 9.7 | 20.9 | 0.00 | 0.00 | 0.00 | 37 | 1011.9 |
| 20260508203550 | 21 | 246 | 4.8 | 27.4 | 0.00 | 0.00 | 0.00 | 38 | 1011.9 |
| 20260508203056 | 21 | 284 | 14.5 | 27.4 | 0.00 | 0.00 | 0.00 | 35 | 1011.9 |
| 20260508202553 | 21 | 275 | 14.5 | 24.1 | 0.00 | 0.00 | 0.00 | 35 | 1011.9 |
| 20260508202055 | 21 | 259 | 9.7 | 19.3 | 0.00 | 0.00 | 0.00 | 37 | 1011.8 |
| 20260508201552 | 21 | 290 | 6.4 | 20.9 | 0.00 | 0.00 | 0.00 | 38 | 1011.9 |
| 20260508201052 | 21 | 321 | 4.8 | 20.9 | 0.00 | 0.00 | 0.00 | 37 | 1012.0 |
| 20260508200552 | 21 | 308 | 8.0 | 20.9 | 0.00 | 0.00 | 0.00 | 40 | 1011.9 |
| 20260508200057 | 21 | 253 | 6.4 | 20.9 | 0.00 | 0.00 | 0.00 | 38 | 1012.0 |
| 20260508195551 | 21 | 294 | 11.3 | 27.4 | 0.00 | 0.00 | 0.00 | 38 | 1012.1 |
| 20260508195052 | 21 | 286 | 11.3 | 27.4 | 0.00 | 0.00 | 0.00 | 37 | 1011.9 |
| 20260508194552 | 21 | 279 | 11.3 | 19.3 | 0.00 | 0.00 | 0.00 | 37 | 1012.1 |
| 20260508194056 | 21 | 289 | 9.7 | 19.3 | 0.00 | 0.00 | 0.00 | 35 | 1012.0 |
| 20260508193552 | 21 | 83 | 3.2 | 25.7 | 0.00 | 0.00 | 0.00 | 39 | 1012.1 |
| 20260508193109 | 21 | 355 | 8.0 | 25.7 | 0.00 | 0.00 | 0.00 | 37 | 1012.2 |
| 20260508192552 | 21 | 294 | 16.1 | 25.7 | 0.00 | 0.00 | 0.00 | 34 | 1012.2 |
| 20260508192052 | 21 | 278 | 8.0 | 16.1 | 0.00 | 0.00 | 0.00 | 36 | 1012.3 |
| 20260508191556 | 21 | 9 | 6.4 | 22.5 | 0.00 | 0.00 | 0.00 | 40 | 1012.5 |
| 20260508191052 | 21 | 297 | 12.9 | 22.5 | 0.00 | 0.00 | 0.00 | 39 | 1012.6 |
| 20260508190552 | 21 | 268 | 12.9 | 20.9 | 0.00 | 0.00 | 0.00 | 36 | 1012.8 |
| 20260508185553 | 21 | 256 | 8.0 | 17.7 | 0.00 | 0.00 | 0.00 | 40 | 1012.7 |
| 20260508185053 | 21 | 257 | 6.4 | 16.1 | 0.00 | 0.00 | 0.00 | 43 | 1012.7 |
| 20260508184625 | 21 | 302 | 4.8 | 22.5 | 0.00 | 0.00 | 0.00 | 42 | 1012.7 |
| 20260508184050 | 21 | 350 | 6.4 | 22.5 | 0.00 | 0.00 | 0.00 | 42 | 1012.8 |
| 20260508183551 | 20 | 203 | 4.8 | 20.9 | 0.00 | 0.00 | 0.00 | 41 | 1013.1 |
| 20260508183054 | 21 | 288 | 4.8 | 16.1 | 0.00 | 0.00 | 0.00 | 40 | 1013.3 |
| 20260508182609 | 20 | 173 | 8.0 | 19.3 | 0.00 | 0.00 | 0.00 | 43 | 1013.4 |
| 20260508182052 | 20 | 293 | 4.8 | 19.3 | 0.00 | 0.00 | 0.00 | 42 | 1013.4 |
| 20260508181606 | 20 | 250 | 11.3 | 20.9 | 0.00 | 0.00 | 0.00 | 40 | 1013.6 |
| 20260508181052 | 20 | 305 | 11.3 | 20.9 | 0.00 | 0.00 | 0.00 | 43 | 1013.6 |
| 20260508180552 | 20 | 257 | 8.0 | 24.1 | 0.00 | 0.00 | 0.00 | 43 | 1013.7 |
| 20260508180101 | 20 | 297 | 8.0 | 24.1 | 0.00 | 0.00 | 0.00 | 42 | 1013.6 |
| 20260508175553 | 20 | 284 | 12.9 | 24.1 | 0.00 | 0.00 | 0.00 | 42 | 1013.8 |
| 20260508175052 | 20 | 298 | 8.0 | 25.7 | 0.00 | 0.00 | 0.00 | 40 | 1013.8 |
| 20260508174553 | 20 | 294 | 8.0 | 25.7 | 0.00 | 0.00 | 0.00 | 42 | 1014.0 |
| 20260508174053 | 20 | 271 | 11.3 | 25.7 | 0.00 | 0.00 | 0.00 | 42 | 1013.9 |
| 20260508173552 | 20 | 244 | 12.9 | 22.5 | 0.00 | 0.00 | 0.00 | 43 | 1014.0 |
| 20260508173057 | 20 | 257 | 8.0 | 22.5 | 0.00 | 0.00 | 0.00 | 40 | 1014.1 |
| 20260508172552 | 20 | 360 | 8.0 | 17.7 | 0.00 | 0.00 | 0.00 | 42 | 1014.2 |
| 20260508172053 | 20 | 336 | 9.7 | 17.7 | 0.00 | 0.00 | 0.00 | 44 | 1014.4 |
| 20260508171556 | 20 | 245 | 6.4 | 22.5 | 0.00 | 0.00 | 0.00 | 46 | 1014.6 |
| 20260508171057 | 20 | 281 | 6.4 | 22.5 | 0.00 | 0.00 | 0.00 | 47 | 1014.6 |
| 20260508170553 | 19 | 288 | 12.9 | 22.5 | 0.00 | 0.00 | 0.00 | 41 | 1014.9 |
| 20260508170100 | 19 | 282 | 6.4 | 20.9 | 0.00 | 0.00 | 0.00 | 43 | 1015.0 |
| 20260508165553 | 19 | 281 | 8.0 | 24.1 | 0.00 | 0.00 | 0.00 | 42 | 1015.1 |
| 20260508165051 | 19 | 271 | 11.3 | 24.1 | 0.00 | 0.00 | 0.00 | 42 | 1015.2 |
| 20260508164603 | 19 | 256 | 8.0 | 24.1 | 0.00 | 0.00 | 0.00 | 44 | 1015.4 |
| 20260508164053 | 19 | 254 | 9.7 | 25.7 | 0.00 | 0.00 | 0.00 | 45 | 1015.4 |
| 20260508163556 | 19 | 251 | 11.3 | 25.7 | 0.00 | 0.00 | 0.00 | 45 | 1015.4 |
| 20260508163059 | 19 | 194 | 8.0 | 19.3 | 0.00 | 0.00 | 0.00 | 43 | 1015.4 |
| 20260508162552 | 19 | 311 | 9.7 | 20.9 | 0.00 | 0.00 | 0.00 | 46 | 1015.5 |
| 20260508162049 | 19 | 34 | 4.8 | 20.9 | 0.00 | 0.00 | 0.00 | 45 | 1015.6 |
| 20260508161553 | 18 | 293 | 12.9 | 20.9 | 0.00 | 0.00 | 0.00 | 44 | 1015.5 |
| 20260508161053 | 18 | 250 | 9.7 | 19.3 | 0.00 | 0.00 | 0.00 | 46 | 1015.6 |
| 20260508160552 | 18 | 305 | 6.4 | 19.3 | 0.00 | 0.00 | 0.00 | 45 | 1015.7 |
| 20260508160057 | 18 | 284 | 9.7 | 19.3 | 0.00 | 0.00 | 0.00 | 46 | 1015.7 |
| 20260508155550 | 18 | 236 | 4.8 | 19.3 | 0.00 | 0.00 | 0.00 | 46 | 1015.8 |
| 20260508155052 | 18 | 249 | 9.7 | 19.3 | 0.00 | 0.00 | 0.00 | 44 | 1015.9 |
| 20260508154552 | 18 | 300 | 8.0 | 22.5 | 0.00 | 0.00 | 0.00 | 45 | 1015.8 |
| 20260508154052 | 18 | 285 | 9.7 | 22.5 | 0.00 | 0.00 | 0.00 | 47 | 1016.0 |
| 20260508153552 | 18 | 280 | 9.7 | 19.3 | 0.00 | 0.00 | 0.00 | 46 | 1016.0 |
| 20260508153055 | 18 | 269 | 11.3 | 22.5 | 0.00 | 0.00 | 0.00 | 44 | 1016.1 |
| 20260508152552 | 17 | 299 | 12.9 | 22.5 | 0.00 | 0.00 | 0.00 | 45 | 1016.2 |
| 20260508152145 | 17 | 298 | 9.7 | 19.3 | 0.00 | 0.00 | 0.00 | 47 | 1016.2 |
| 20260508151603 | 17 | 205 | 6.4 | 20.9 | 0.00 | 0.00 | 0.00 | 50 | 1016.2 |
| 20260508151052 | 17 | 275 | 11.3 | 20.9 | 0.00 | 0.00 | 0.00 | 46 | 1016.2 |
| 20260508150550 | 17 | 243 | 6.4 | 20.9 | 0.00 | 0.00 | 0.00 | 46 | 1016.4 |
| 20260508145549 | 16 | 250 | 8.0 | 20.9 | 0.00 | 0.00 | 0.00 | 48 | 1016.4 |
| 20260508145049 | 16 | 282 | 8.0 | 17.7 | 0.00 | 0.00 | 0.00 | 50 | 1016.5 |
| 20260508144621 | 16 | 246 | 8.0 | 17.7 | 0.00 | 0.00 | 0.00 | 50 | 1016.4 |
| 20260508144050 | 16 | 251 | 9.7 | 16.1 | 0.00 | 0.00 | 0.00 | 51 | 1016.4 |
| 20260508143550 | 16 | 290 | 8.0 | 20.9 | 0.00 | 0.00 | 0.00 | 50 | 1016.4 |
| 20260508143111 | 16 | 225 | 11.3 | 20.9 | 0.00 | 0.00 | 0.00 | 48 | 1016.3 |
| 20260508142548 | 16 | 279 | 8.0 | 16.1 | 0.00 | 0.00 | 0.00 | 51 | 1016.2 |
| 20260508142048 | 15 | 255 | 6.4 | 16.1 | 0.00 | 0.00 | 0.00 | 52 | 1016.4 |
| 20260508141605 | 15 | 13 | 6.4 | 16.1 | 0.00 | 0.00 | 0.00 | 56 | 1016.4 |
| 20260508141048 | 15 | 282 | 8.0 | 19.3 | 0.00 | 0.00 | 0.00 | 55 | 1016.5 |
| 20260508140548 | 15 | 285 | 8.0 | 19.3 | 0.00 | 0.00 | 0.00 | 57 | 1016.5 |
| 20260508140056 | 14 | 251 | 4.8 | 19.3 | 0.00 | 0.00 | 0.00 | 55 | 1016.6 |
| 20260508135548 | 14 | 292 | 9.7 | 19.3 | 0.00 | 0.00 | 0.00 | 57 | 1016.6 |
| 20260508135052 | 13 | 180 | 9.7 | 17.7 | 0.00 | 0.00 | 0.00 | 57 | 1016.5 |
| 20260508134603 | 13 | 276 | 8.0 | 17.7 | 0.00 | 0.00 | 0.00 | 60 | 1016.6 |
| 20260508134047 | 13 | 256 | 8.0 | 16.1 | 0.00 | 0.00 | 0.00 | 63 | 1016.5 |
| 20260508133551 | 13 | 294 | 8.0 | 16.1 | 0.00 | 0.00 | 0.00 | 64 | 1016.5 |
| 20260508133115 | 12 | 288 | 6.4 | 16.1 | 0.00 | 0.00 | 0.00 | 65 | 1016.5 |
| 20260508132550 | 12 | 303 | 6.4 | 16.1 | 0.00 | 0.00 | 0.00 | 70 | 1016.5 |
| 20260508132048 | 11 | 233 | 4.8 | 16.1 | 0.00 | 0.00 | 0.00 | 73 | 1016.5 |
| 20260508131553 | 11 | 229 | 6.4 | 16.1 | 0.00 | 0.00 | 0.00 | 81 | 1016.4 |
| 20260508131048 | 10 | 273 | 4.8 | 16.1 | 0.00 | 0.00 | 0.00 | 85 | 1016.4 |
| 20260508130548 | 10 | 290 | 9.7 | 16.1 | 0.00 | 0.00 | 0.00 | 89 | 1016.4 |
| 20260508130050 | 8 | 260 | 4.8 | 17.7 | 0.00 | 0.00 | 0.00 | 92 | 1016.4 |
| 20260508125550 | 8 | 275 | 8.0 | 17.7 | 0.00 | 0.00 | 0.00 | 92 | 1016.3 |
| 20260508125049 | 8 | 279 | 1.6 | 14.5 | 0.00 | 0.00 | 0.00 | 94 | 1016.4 |
| 20260508124551 | 8 | 305 | 3.2 | 14.5 | 0.00 | 0.00 | 0.00 | 94 | 1016.4 |
| 20260508124048 | 7 | 0 | 0.0 | 3.2 | 0.00 | 0.00 | 0.00 | 94 | 1016.3 |
| 20260508123547 | 7 | 244 | 0.0 | 3.2 | 0.00 | 0.00 | 0.00 | 94 | 1016.4 |
| 20260508123107 | 7 | 0 | 0.0 | 0.0 | 0.00 | 0.00 | 0.00 | 94 | 1016.4 |
| 20260508122551 | 6 | 0 | 0.0 | 0.0 | 0.00 | 0.00 | 0.00 | 94 | 1016.2 |
| 20260508122048 | 6 | 0 | 0.0 | 0.0 | 0.00 | 0.00 | 0.00 | 94 | 1016.2 |
| 20260508121554 | 5 | 0 | 0.0 | 0.0 | 0.00 | 0.00 | 0.00 | 94 | 1016.2 |
| 20260508121048 | 5 | 0 | 0.0 | 0.0 | 0.00 | 0.00 | 0.00 | 94 | 1016.2 |
| 20260508120548 | 4 | 0 | 0.0 | 0.0 | 0.00 | 0.00 | 0.00 | 94 | 1016.2 |
| 20260508120056 | 4 | 0 | 0.0 | 0.0 | 0.00 | 0.00 | 0.00 | 94 | 1016.2 |
| 20260508115548 | 3 | 0 | 0.0 | 0.0 | 0.00 | 0.00 | 0.00 | 94 | 1016.3 |
| 20260508115051 | 3 | 0 | 0.0 | 0.0 | 0.00 | 0.00 | 0.00 | 94 | 1016.4 |
| 20260508114552 | 3 | 0 | 0.0 | 0.0 | 0.00 | 0.00 | 0.00 | 94 | 1016.3 |
| 20260508114052 | 2 | 0 | 0.0 | 0.0 | 0.00 | 0.00 | 0.00 | 94 | 1016.3 |
| 20260508113554 | 2 | 0 | 0.0 | 0.0 | 0.00 | 0.00 | 0.00 | 94 | 1016.2 |
| 20260508113105 | 2 | 0 | 0.0 | 0.0 | 0.00 | 0.00 | 0.00 | 94 | 1016.2 |
| 20260508112551 | 1 | 0 | 0.0 | 0.0 | 0.00 | 0.00 | 0.00 | 93 | 1016.2 |
| 20260508112052 | 1 | 0 | 0.0 | 0.0 | 0.00 | 0.00 | 0.00 | 93 | 1016.2 |
| 20260508111603 | 1 | 0 | 0.0 | 0.0 | 0.00 | 0.00 | 0.00 | 93 | 1016.1 |
| 20260508111052 | 1 | 0 | 0.0 | 0.0 | 0.00 | 0.00 | 0.00 | 93 | 1016.1 |
| 20260508110552 | 1 | 0 | 0.0 | 0.0 | 0.00 | 0.00 | 0.00 | 93 | 1016.1 |
| 20260508110057 | 1 | 0 | 0.0 | 0.0 | 0.00 | 0.00 | 0.00 | 93 | 1016.0 |
| 20260508105552 | 1 | 0 | 0.0 | 0.0 | 0.00 | 0.00 | 0.00 | 93 | 1015.9 |
| 20260508105052 | 1 | 0 | 0.0 | 0.0 | 0.00 | 0.00 | 0.00 | 93 | 1015.9 |
| 20260508104554 | 1 | 0 | 0.0 | 0.0 | 0.00 | 0.00 | 0.00 | 93 | 1015.9 |
| 20260508104051 | 1 | 0 | 0.0 | 0.0 | 0.00 | 0.00 | 0.00 | 93 | 1015.9 |
| 20260508103552 | 1 | 0 | 0.0 | 0.0 | 0.00 | 0.00 | 0.00 | 93 | 1015.8 |
| 20260508103059 | 1 | 0 | 0.0 | 0.0 | 0.00 | 0.00 | 0.00 | 93 | 1015.9 |
| 20260508102551 | 1 | 0 | 0.0 | 0.0 | 0.00 | 0.00 | 0.00 | 93 | 1015.8 |
| 20260508102052 | 1 | 0 | 0.0 | 0.0 | 0.00 | 0.00 | 0.00 | 93 | 1015.8 |
| 20260508101600 | 1 | 0 | 0.0 | 0.0 | 0.00 | 0.00 | 0.00 | 93 | 1015.7 |
| 20260508101052 | 1 | 0 | 0.0 | 0.0 | 0.00 | 0.00 | 0.00 | 93 | 1015.7 |
| 20260508100552 | 1 | 0 | 0.0 | 0.0 | 0.00 | 0.00 | 0.00 | 93 | 1015.7 |
| 20260508100054 | 1 | 0 | 0.0 | 0.0 | 0.00 | 0.00 | 0.00 | 93 | 1015.7 |
| 20260508095552 | 1 | 0 | 0.0 | 0.0 | 0.00 | 0.00 | 0.00 | 92 | 1015.6 |
| 20260508095050 | 1 | 0 | 0.0 | 0.0 | 0.00 | 0.00 | 0.00 | 92 | 1015.6 |
| 20260508094552 | 1 | 0 | 0.0 | 0.0 | 0.00 | 0.00 | 0.00 | 92 | 1015.5 |
| 20260508094051 | 1 | 0 | 0.0 | 0.0 | 0.00 | 0.00 | 0.00 | 92 | 1015.5 |
| 20260508093555 | 1 | 0 | 0.0 | 0.0 | 0.00 | 0.00 | 0.00 | 92 | 1015.5 |
| 20260508093054 | 1 | 0 | 0.0 | 0.0 | 0.00 | 0.00 | 0.00 | 92 | 1015.5 |
| 20260508092556 | 1 | 0 | 0.0 | 0.0 | 0.00 | 0.00 | 0.00 | 92 | 1015.5 |
| 20260508092052 | 1 | 0 | 0.0 | 0.0 | 0.00 | 0.00 | 0.00 | 92 | 1015.5 |
| 20260508091601 | 1 | 0 | 0.0 | 0.0 | 0.00 | 0.00 | 0.00 | 92 | 1015.5 |
| 20260508091052 | 1 | 0 | 0.0 | 0.0 | 0.00 | 0.00 | 0.00 | 92 | 1015.5 |
| 20260508090552 | 1 | 0 | 0.0 | 0.0 | 0.00 | 0.00 | 0.00 | 92 | 1015.5 |
| 20260508090108 | 1 | 0 | 0.0 | 0.0 | 0.00 | 0.00 | 0.00 | 92 | 1015.4 |
| 20260508085552 | 1 | 0 | 0.0 | 0.0 | 0.00 | 0.00 | 0.00 | 92 | 1015.5 |
| 20260508085051 | 1 | 0 | 0.0 | 0.0 | 0.00 | 0.00 | 0.00 | 92 | 1015.4 |
| 20260508084553 | 1 | 0 | 0.0 | 0.0 | 0.00 | 0.00 | 0.00 | 92 | 1015.4 |
| 20260508084052 | 1 | 0 | 0.0 | 0.0 | 0.00 | 0.00 | 0.00 | 92 | 1015.5 |
| 20260508083716 | 1 | 0 | 0.0 | 0.0 | 0.00 | 0.00 | 0.00 | 92 | 1015.5 |
| 20260508083052 | 1 | 0 | 0.0 | 0.0 | 0.00 | 0.00 | 0.00 | 92 | 1015.5 |
| 20260508082548 | 1 | 0 | 0.0 | 0.0 | 0.00 | 0.00 | 0.00 | 92 | 1015.4 |
| 20260508082052 | 1 | 0 | 0.0 | 0.0 | 0.00 | 0.00 | 0.00 | 92 | 1015.5 |
| 20260508081603 | 1 | 0 | 0.0 | 0.0 | 0.00 | 0.00 | 0.00 | 92 | 1015.5 |
| 20260508081052 | 1 | 0 | 0.0 | 0.0 | 0.00 | 0.00 | 0.00 | 92 | 1015.5 |
| 20260508080553 | 1 | 0 | 0.0 | 0.0 | 0.00 | 0.00 | 0.00 | 92 | 1015.5 |
| 20260508080101 | 1 | 0 | 0.0 | 0.0 | 0.00 | 0.00 | 0.00 | 92 | 1015.5 |
| 20260508075552 | 1 | 0 | 0.0 | 0.0 | 0.00 | 0.00 | 0.00 | 92 | 1015.4 |
| 20260508075051 | 1 | 0 | 0.0 | 0.0 | 0.00 | 0.00 | 0.00 | 92 | 1015.5 |
| 20260508074555 | 1 | 0 | 0.0 | 0.0 | 0.00 | 0.00 | 0.00 | 92 | 1015.5 |
| 20260508074051 | 1 | 0 | 0.0 | 0.0 | 0.00 | 0.00 | 0.00 | 92 | 1015.5 |
| 20260508073552 | 1 | 0 | 0.0 | 0.0 | 0.00 | 0.00 | 0.00 | 92 | 1015.4 |
| 20260508073102 | 1 | 0 | 0.0 | 0.0 | 0.00 | 0.00 | 0.00 | 92 | 1015.4 |
| 20260508072553 | 1 | 0 | 0.0 | 0.0 | 0.00 | 0.00 | 0.00 | 92 | 1015.5 |
| 20260508072049 | 1 | 0 | 0.0 | 0.0 | 0.00 | 0.00 | 0.00 | 91 | 1015.5 |
| 20260508071603 | 1 | 0 | 0.0 | 0.0 | 0.00 | 0.00 | 0.00 | 91 | 1015.5 |
| 20260508071053 | 1 | 0 | 0.0 | 0.0 | 0.00 | 0.00 | 0.00 | 91 | 1015.5 |
| 20260508070552 | 1 | 0 | 0.0 | 0.0 | 0.00 | 0.00 | 0.00 | 91 | 1015.5 |
| 20260508070056 | 1 | 0 | 0.0 | 0.0 | 0.00 | 0.00 | 0.00 | 91 | 1015.6 |
| 20260508065551 | 1 | 0 | 0.0 | 0.0 | 0.00 | 0.00 | 0.00 | 91 | 1015.6 |
| 20260508065049 | 1 | 0 | 0.0 | 0.0 | 0.00 | 0.00 | 0.00 | 91 | 1015.7 |
| 20260508064555 | 1 | 0 | 0.0 | 0.0 | 0.00 | 0.00 | 0.00 | 91 | 1015.7 |
| 20260508064055 | 1 | 0 | 0.0 | 0.0 | 0.00 | 0.00 | 0.00 | 91 | 1015.7 |
| 20260508063551 | 1 | 0 | 0.0 | 0.0 | 0.00 | 0.00 | 0.00 | 91 | 1015.5 |
| 20260508063059 | 1 | 0 | 0.0 | 0.0 | 0.00 | 0.00 | 0.00 | 91 | 1015.6 |
| 20260508062553 | 2 | 0 | 0.0 | 0.0 | 0.00 | 0.00 | 0.00 | 91 | 1015.6 |
| 20260508062052 | 2 | 0 | 0.0 | 0.0 | 0.00 | 0.00 | 0.00 | 91 | 1015.7 |
| 20260508061556 | 2 | 0 | 0.0 | 0.0 | 0.00 | 0.00 | 0.00 | 91 | 1015.7 |
| 20260508061052 | 2 | 0 | 0.0 | 0.0 | 0.00 | 0.00 | 0.00 | 91 | 1015.8 |
| 20260508060552 | 2 | 0 | 0.0 | 0.0 | 0.00 | 0.00 | 0.00 | 91 | 1015.7 |
| 20260508060055 | 2 | 0 | 0.0 | 0.0 | 0.00 | 0.00 | 0.00 | 91 | 1015.8 |
| 20260508055555 | 2 | 0 | 0.0 | 0.0 | 0.00 | 0.00 | 0.00 | 91 | 1015.9 |
| 20260508055052 | 2 | 0 | 0.0 | 0.0 | 0.00 | 0.00 | 0.00 | 91 | 1016.0 |
| 20260508054555 | 2 | 0 | 0.0 | 0.0 | 0.00 | 0.00 | 0.00 | 91 | 1016.0 |
| 20260508054050 | 2 | 0 | 0.0 | 0.0 | 0.00 | 0.00 | 0.00 | 90 | 1015.9 |
| 20260508053553 | 2 | 0 | 0.0 | 0.0 | 0.00 | 0.00 | 0.00 | 90 | 1016.0 |
| 20260508053116 | 2 | 0 | 0.0 | 0.0 | 0.00 | 0.00 | 0.00 | 90 | 1016.0 |
| 20260508052554 | 2 | 0 | 0.0 | 0.0 | 0.00 | 0.00 | 0.00 | 90 | 1016.0 |
| 20260508052052 | 2 | 0 | 0.0 | 0.0 | 0.00 | 0.00 | 0.00 | 90 | 1015.9 |
| 20260508051551 | 2 | 0 | 0.0 | 0.0 | 0.00 | 0.00 | 0.00 | 90 | 1015.9 |
| 20260508051052 | 2 | 0 | 0.0 | 0.0 | 0.00 | 0.00 | 0.00 | 90 | 1015.9 |
| 20260508050551 | 2 | 0 | 0.0 | 0.0 | 0.00 | 0.00 | 0.00 | 90 | 1016.0 |
| 20260508050056 | 2 | 0 | 0.0 | 0.0 | 0.00 | 0.00 | 0.00 | 90 | 1016.0 |
| 20260508045553 | 2 | 0 | 0.0 | 0.0 | 0.00 | 0.00 | 0.00 | 90 | 1016.0 |
| 20260508045053 | 2 | 0 | 0.0 | 0.0 | 0.00 | 0.00 | 0.00 | 90 | 1015.9 |
| 20260508044557 | 2 | 0 | 0.0 | 0.0 | 0.00 | 0.00 | 0.00 | 90 | 1015.9 |
| 20260508044051 | 3 | 0 | 0.0 | 0.0 | 0.00 | 0.00 | 0.00 | 90 | 1015.8 |
| 20260508043553 | 3 | 0 | 0.0 | 0.0 | 0.00 | 0.00 | 0.00 | 89 | 1015.7 |
| 20260508043104 | 3 | 0 | 0.0 | 0.0 | 0.00 | 0.00 | 0.00 | 89 | 1015.7 |
| 20260508042553 | 3 | 0 | 0.0 | 0.0 | 0.00 | 0.00 | 0.00 | 89 | 1015.8 |
| 20260508042050 | 3 | 0 | 0.0 | 0.0 | 0.00 | 0.00 | 0.00 | 89 | 1015.8 |
| 20260508041614 | 3 | 0 | 0.0 | 0.0 | 0.00 | 0.00 | 0.00 | 89 | 1015.8 |
| 20260508041055 | 3 | 0 | 0.0 | 0.0 | 0.00 | 0.00 | 0.00 | 89 | 1015.8 |
| 20260508040552 | 3 | 0 | 0.0 | 0.0 | 0.00 | 0.00 | 0.00 | 89 | 1015.8 |
| 20260508040110 | 3 | 0 | 0.0 | 0.0 | 0.00 | 0.00 | 0.00 | 88 | 1015.8 |
| 20260508035551 | 3 | 0 | 0.0 | 0.0 | 0.00 | 0.00 | 0.00 | 88 | 1015.8 |
| 20260508035052 | 3 | 0 | 0.0 | 0.0 | 0.00 | 0.00 | 0.00 | 88 | 1015.9 |
| 20260508034558 | 3 | 0 | 0.0 | 0.0 | 0.00 | 0.00 | 0.00 | 88 | 1016.0 |
| 20260508034054 | 3 | 0 | 0.0 | 0.0 | 0.00 | 0.00 | 0.00 | 88 | 1016.0 |
| 20260508033553 | 3 | 0 | 0.0 | 1.6 | 0.00 | 0.00 | 0.00 | 87 | 1016.1 |
| 20260508033052 | 4 | 0 | 0.0 | 3.2 | 0.00 | 0.00 | 0.00 | 87 | 1016.1 |
| 20260508032552 | 4 | 0 | 0.0 | 3.2 | 0.00 | 0.00 | 0.00 | 87 | 1016.1 |
| 20260508032050 | 4 | 295 | 1.6 | 3.2 | 0.00 | 0.00 | 0.00 | 87 | 1016.1 |
| 20260508031554 | 4 | 295 | 1.6 | 3.2 | 0.00 | 0.00 | 0.00 | 86 | 1016.1 |
| 20260508031053 | 4 | 0 | 0.0 | 3.2 | 0.00 | 0.00 | 0.00 | 86 | 1016.0 |
| 20260508030551 | 5 | 295 | 0.0 | 3.2 | 0.00 | 0.00 | 0.00 | 86 | 1016.1 |
| 20260508030054 | 5 | 0 | 0.0 | 0.0 | 0.00 | 0.00 | 0.00 | 85 | 1016.0 |
| 20260508025549 | 5 | 0 | 0.0 | 0.0 | 0.00 | 0.00 | 0.00 | 85 | 1015.9 |
| 20260508025053 | 5 | 0 | 0.0 | 0.0 | 0.00 | 0.00 | 0.00 | 84 | 1015.9 |
| 20260508024605 | 5 | 0 | 0.0 | 1.6 | 0.00 | 0.00 | 0.00 | 84 | 1015.9 |
| 20260508024050 | 5 | 0 | 0.0 | 1.6 | 0.00 | 0.00 | 0.00 | 83 | 1016.0 |
| 20260508023552 | 5 | 295 | 0.0 | 0.0 | 0.00 | 0.00 | 0.00 | 82 | 1015.9 |
| 20260508023054 | 6 | 0 | 0.0 | 1.6 | 0.00 | 0.00 | 0.00 | 82 | 1016.0 |
| 20260508022555 | 6 | 0 | 0.0 | 1.6 | 0.00 | 0.00 | 0.00 | 82 | 1015.9 |
| 20260508022051 | 6 | 295 | 0.0 | 1.6 | 0.00 | 0.00 | 0.00 | 81 | 1015.9 |
| 20260508021552 | 6 | 0 | 0.0 | 1.6 | 0.00 | 0.00 | 0.00 | 80 | 1015.9 |
| 20260508021050 | 6 | 295 | 0.0 | 1.6 | 0.00 | 0.00 | 0.00 | 79 | 1015.8 |
| 20260508020550 | 6 | 0 | 0.0 | 0.0 | 0.00 | 0.00 | 0.00 | 79 | 1015.7 |
| 20260508020056 | 6 | 0 | 0.0 | 0.0 | 0.00 | 0.00 | 0.00 | 78 | 1015.7 |
| 20260508015551 | 7 | 0 | 0.0 | 0.0 | 0.00 | 0.00 | 0.00 | 78 | 1015.6 |
| 20260508015048 | 7 | 0 | 0.0 | 0.0 | 0.00 | 0.00 | 0.00 | 79 | 1015.6 |
| 20260508014554 | 7 | 0 | 0.0 | 0.0 | 0.00 | 0.00 | 0.00 | 78 | 1015.4 |
| 20260508014056 | 7 | 0 | 0.0 | 0.0 | 0.00 | 0.00 | 0.00 | 77 | 1015.4 |
| 20260508013548 | 7 | 0 | 0.0 | 0.0 | 0.00 | 0.00 | 0.00 | 76 | 1015.4 |
| 20260508013053 | 8 | 0 | 0.0 | 0.0 | 0.00 | 0.00 | 0.00 | 75 | 1015.4 |
| 20260508012555 | 8 | 0 | 0.0 | 0.0 | 0.00 | 0.00 | 0.00 | 74 | 1015.5 |
| 20260508012052 | 8 | 0 | 0.0 | 0.0 | 0.00 | 0.00 | 0.00 | 73 | 1015.4 |
| 20260508011602 | 9 | 0 | 0.0 | 0.0 | 0.00 | 0.00 | 0.00 | 71 | 1015.3 |
| 20260508011052 | 9 | 0 | 0.0 | 0.0 | 0.00 | 0.00 | 0.00 | 70 | 1015.1 |
| 20260508010551 | 10 | 0 | 0.0 | 0.0 | 0.00 | 0.00 | 0.00 | 68 | 1015.0 |
| 20260508010054 | 10 | 0 | 0.0 | 0.0 | 0.00 | 0.00 | 0.00 | 67 | 1014.9 |
| 20260508005551 | 10 | 0 | 0.0 | 0.0 | 0.00 | 0.00 | 0.00 | 66 | 1014.8 |
| 20260508005051 | 11 | 0 | 0.0 | 0.0 | 0.00 | 0.00 | 0.00 | 65 | 1014.8 |
| 20260508004558 | 11 | 0 | 0.0 | 0.0 | 0.00 | 0.00 | 0.00 | 65 | 1014.9 |
| 20260508004051 | 11 | 0 | 0.0 | 0.0 | 0.00 | 0.00 | 0.00 | 62 | 1014.7 |
| 20260508003551 | 12 | 0 | 0.0 | 0.0 | 0.00 | 0.00 | 0.00 | 60 | 1014.6 |
| 20260508003106 | 12 | 0 | 0.0 | 0.0 | 0.00 | 0.00 | 0.00 | 58 | 1014.6 |
| 20260508002552 | 13 | 0 | 0.0 | 0.0 | 0.00 | 0.00 | 0.00 | 57 | 1014.6 |
| 20260508002055 | 13 | 0 | 0.0 | 1.6 | 0.00 | 0.00 | 0.00 | 56 | 1014.6 |
| 20260508001557 | 14 | 0 | 0.0 | 1.6 | 0.00 | 0.00 | 0.00 | 55 | 1014.5 |
| 20260508001048 | 15 | 0 | 0.0 | 1.6 | 0.00 | 0.00 | 0.00 | 52 | 1014.5 |
| 20260508000551 | 15 | 0 | 0.0 | 1.6 | 0.00 | 0.00 | 0.00 | 50 | 1014.5 |
| 20260508000057 | 16 | 0 | 0.0 | 1.6 | 0.00 | 0.00 | 0.00 | 50 | 1014.4 |
| 20260507235552 | 16 | 0 | 0.0 | 1.6 | 0.00 | 0.00 | 0.00 | 48 | 1014.4 |
| 20260507235050 | 16 | 0 | 0.0 | 3.2 | 0.00 | 0.00 | 0.00 | 48 | 1014.4 |
| 20260507234556 | 16 | 0 | 0.0 | 6.4 | 0.00 | 0.00 | 0.00 | 44 | 1014.3 |
| 20260507234051 | 16 | 311 | 0.0 | 6.4 | 0.00 | 0.00 | 0.00 | 39 | 1014.3 |
| 20260507233552 | 16 | 302 | 1.6 | 4.8 | 0.00 | 0.00 | 0.00 | 43 | 1014.3 |
| 20260507233102 | 16 | 0 | 0.0 | 4.8 | 0.00 | 0.00 | 0.00 | 44 | 1014.3 |
| 20260507232548 | 16 | 0 | 0.0 | 4.8 | 0.00 | 0.00 | 0.00 | 39 | 1014.3 |
| 20260507232051 | 16 | 112 | 0.0 | 6.4 | 0.00 | 0.00 | 0.00 | 41 | 1014.3 |
| 20260507231556 | 16 | 0 | 1.6 | 6.4 | 0.00 | 0.00 | 0.00 | 36 | 1014.3 |
| 20260507231051 | 16 | 257 | 1.6 | 8.0 | 0.00 | 0.00 | 0.00 | 36 | 1014.2 |
| 20260507230551 | 16 | 331 | 1.6 | 9.7 | 0.00 | 0.00 | 0.00 | 34 | 1014.2 |
| 20260507225552 | 16 | 268 | 4.8 | 14.5 | 0.00 | 0.00 | 0.00 | 35 | 1014.1 |
| 20260507225053 | 16 | 269 | 6.4 | 14.5 | 0.00 | 0.00 | 0.00 | 35 | 1014.1 |
| 20260507224559 | 17 | 225 | 4.8 | 14.5 | 0.00 | 0.00 | 0.00 | 38 | 1014.1 |
| 20260507224049 | 17 | 324 | 4.8 | 17.7 | 0.00 | 0.00 | 0.00 | 36 | 1014.1 |
| 20260507223551 | 17 | 266 | 8.0 | 17.7 | 0.00 | 0.00 | 0.00 | 38 | 1014.1 |
| 20260507223053 | 17 | 330 | 3.2 | 9.7 | 0.00 | 0.00 | 0.00 | 33 | 1014.2 |
| 20260507222551 | 17 | 237 | 3.2 | 12.9 | 0.00 | 0.00 | 0.00 | 37 | 1014.1 |
| 20260507222051 | 17 | 249 | 4.8 | 12.9 | 0.00 | 0.00 | 0.00 | 33 | 1014.3 |
| 20260507221557 | 17 | 284 | 4.8 | 16.1 | 0.00 | 0.00 | 0.00 | 35 | 1014.3 |
| 20260507221052 | 17 | 38 | 4.8 | 16.1 | 0.00 | 0.00 | 0.00 | 34 | 1014.4 |
| 20260507220551 | 17 | 219 | 6.4 | 16.1 | 0.00 | 0.00 | 0.00 | 33 | 1014.3 |
| 20260507220056 | 17 | 289 | 4.8 | 14.5 | 0.00 | 0.00 | 0.00 | 34 | 1014.3 |
| 20260507215555 | 17 | 209 | 1.6 | 16.1 | 0.00 | 0.00 | 0.00 | 34 | 1014.3 |
| 20260507215050 | 17 | 197 | 6.4 | 20.9 | 0.00 | 0.00 | 0.00 | 34 | 1014.2 |
| 20260507214604 | 17 | 346 | 1.6 | 20.9 | 0.00 | 0.00 | 0.00 | 36 | 1014.0 |